Vertical_Velocity
-2 8 -6 5 1 -3 -4 3 -3 -3 4 4 3 -4 3 -1 -0 -3 -4 2 1 -2 -1 -4 -5 -4 0 1 -1 4 8 1 5 5 6 -4 3 -9 2 -4 1 7 8 -1 2 7 -16 2 -10 -0 8 -17 3 -4
-2 4 -2 2 -1 -3 -7 -1 2 3 2 -5 -6 -1 2 -2 -1 -6 -6 -5 -9 6 7 -6 -4 -7 6 5 5 -2 -2 -2 -4 3 1 1 0 1 2 -5 -7 3 5 3 16 -4 -5 6 5 2 6 2 -8 6
-1 4 1 1 -2 -2 -6 -3 -7 -4 -5 0 -1 -7 -5 -4 -4 -6 -4 -3 -4 3 7 -1 11 0 -4 -6 -6 6 -2 -3 -2 1 2 -1 5 8 2 -7 4 -7 1 5 21 -21 -1 -3 -11 2 -1 1 1 7
-5 -3 1 7 -9 -15 3 -2 -4 -3 -1 -4 -0 -4 -2 -4 -3 1 -4 -5 -3 -4 -0 9 -6 -2 -2 -2 0 -5 5 -9 -6 5 2 1 5 8 -3 1 10 -4 8 -2 -7 -6 -5 -9 -6 -0 -7 3 -3 3
-2 -4 2 2 0 -5 -6 -4 7 -0 -0 -2 -2 -2 -2 -2 -5 -4 -5 -1 -6 5 2 8 -4 -4 -5 -5 -1 -4 -2 0 5 5 2 -3 0 7 -4 8 -1 0 -4 5 -6 -5 7 -10 -9 2 4 -1 5 2
5 3 3 -2 -2 -0 -1 -4 0 -8 -2 0 2 -8 1 0 -14 10 -4 -8 -5 -10 -0 3 -5 1 -5 -3 -0 0 0 -2 4 5 -4 -4 -9 15 3 0 -10 0 -5 -5 -5 9 5 -8 -4 1 3 1 -1 5
-4 -3 2 -1 -12 -4 -4 -4 -1 -2 -5 -4 -6 -2 -1 -0 1 12 9 1 -4 -14 0 0 5 0 -4 -1 -0 2 -2 -2 8 -1 -1 2 -1 2 2 2 -15 -1 9 -3 -11 -3 -7 5 -1 -2 2 2 -0 4
-1 -5 -3 -2 1 4 0 -6 -7 -1 5 1 3 4 2 -3 -18 -2 -3 -6 -9 1 -3 1 1 7 -5 2 2 5 -1 2 -3 -4 0 2 -0 2 1 -6 -0 -1 -2 -3 6 1 3 1 -0 -2 -1 0 -1 -0
5 6 3 -1 -7 -6 -2 3 4 -5 -1 -2 -3 -7 -11 -0 16 6 -2 -2 -1 -2 1 -0 2 3 -6 0 -4 1 1 4 -0 -0 -1 8 -2 -1 -8 -0 -0 -0 -1 1 -4 5 5 -1 -1 -0 -1 -1 1 -1
-6 -3 -3 -2 -5 -4 -5 -5 1 0 -6 -9 -7 11 -5 1 -5 -5 -4 2 1 0 -2 1 -4 0 -3 1 -1 2 0 -1 2 -8 1 3 -7 -10 4 5 3 0 -3 -5 0 -2 -3 -2 0 -1 1 1 3 2
-5 -4 -2 -4 -2 -1 -2 -5 -8 -7 -5 -0 1 3 -4 -2 2 1 1 1 -0 2 -1 -1 -0 2 -2 4 1 0 -1 -1 2 1 5 -0 -1 -0 -1 -2 3 -0 -2 1 -1 0 -1 -1 1 0 -1 -1 1 -1
-3 -4 -3 -5 -6 -3 0 0 -2 -1 5 -2 -2 -6 -4 2 0 1 -0 1 2 2 2 3 4 0 1 -1 3 -2 1 2 -1 -0 4 -0 4 2 1 1 1 -4 -0 -1 -1 2 -0 1 -2 -2 4 0 2 0
-4 -2 -0 -0 -1 -2 -1 -2 -2 -0 -2 4 3 -1 2 1 3 3 0 0 1 1 1 -1 -2 0 -1 -3 1 3 4 -4 1 3 -3 3 4 3 -0 -5 -2 -2 -4 -3 -3 -1 -5 0 3 -0 -1 -2 -3 -4
-1 -0 -0 -0 0 1 2 2 1 -0 -2 0 -0 2 2 2 -1 -1 1 1 2 -1 -1 0 -2 2 1 4 -1 5 -7 4 2 2 1 4 4 -1 -0 -1 2 3 4 -0 1 5 4 -4 -4 -2 -2 -2 -1 -2
-1 -1 0 0 -0 -1 -2 -2 -4 -0 6 -1 3 -1 0 -5 -1 -1 -2 -2 -3 -2 2 -0 1 3 -1 3 1 1 3 -1 -1 3 3 2 -2 -9 -4 -5 -1 4 0 -2 -2 -2 -4 -2 -2 -1 1 -1 -1 -3
2 1 -2 -1 -0 -2 -2 -2 2 1 -3 -0 2 1 -2 2 -2 -1 -2 -3 -1 -2 -1 2 -0 2 -2 0 4 -3 3 -0 5 1 2 1 -1 0 -2 -3 -1 -1 -3 -0 3 1 4 -0 -0 -2 -4 0 -1 1
-1 5 -1 -1 -1 -2 -1 2 2 -0 -1 2 -1 -4 -1 -0 -3 -2 0 -2 2 4 -0 2 2 -7 -0 2 0 1 3 4 3 -1 2 1 2 2 -1 0 -1 -4 -3 1 1 -1 -2 -2 -2 1 5 -2 -7 -1
3 -2 -1 -2 2 2 5 -4 3 2 1 -2 3 -2 1 -3 -3 -1 -4 -2 4 1 4 -2 3 3 -1 1 -5 1 -1 -2 3 -0 -5 -1 -0 -3 -4 1 -1 -2 0 1 -4 -1 1 -2 -1 1 -2 -1 -3 -2
-1 0 -1 -1 -1 4 3 2 2 1 -4 0 -3 -1 2 -4 -4 -2 -1 1 -2 0 3 2 4 -0 -3 -1 1 1 -3 -0 -1 -1 1 -3 -4 -2 3 -0 -4 1 -0 -2 -1 1 -2 4 2 4 1 -1 1 -2
-0 0 0 0 -1 6 1 2 -4 1 -1 0 -0 -2 1 -4 2 4 1 5 6 1 4 2 -3 -3 4 1 -2 -2 -1 -3 -1 -1 3 16 4 -4 -0 -2 -1 -2 -2 -1 -1 -1 4 -3 4 3 7 -1 -3 -2
0 -3 -0 -3 2 -3 0 1 2 -4 -1 1 0 5 -4 6 3 3 -4 9 5 -1 -0 -3 8 4 -2 -4 -3 -2 0 -3 -0 1 -1 -6 -1 -3 1 -1 -1 -2 1 4 -2 -2 0 2 -0 1 -1 -3 -2 -2
2 0 -1 -3 1 -0 1 -0 1 3 1 -4 3 3 1 0 -3 -1 3 2 -2 0 1 -0 -0 -2 -0 -3 -0 -4 -4 -3 -2 -3 -0 4 3 2 -0 0 0 0 0 1 4 1 -1 -3 7 -3 -5 -0 -2 -5
-0 -3 1 1 2 2 -4 -2 3 1 2 -2 1 2 -0 -0 2 -6 1 -1 1 -2 -3 -1 -0 -3 1 1 -4 -0 -1 -2 -0 1 1 -0 -2 -0 2 1 -0 2 -3 -6 -0 4 -2 2 -2 -0 -7 -5 2 -3
-1 3 -2 -1 2 0 -0 -0 -0 0 0 1 1 -1 -1 -0 0 3 -1 1 1 -5 -2 -1 -1 4 -0 -0 1 6 -0 -1 -1 -2 4 -0 -4 -4 2 -3 -2 -1 2 1 -1 -1 -3 -2 -2 -1 -2 -3 0 -2
5 -3 0 0 -0 5 2 1 -0 2 -0 -1 1 -1 -0 -1 1 1 -2 2 -2 -2 -1 -3 -2 -1 -1 2 -2 -2 0 -2 -1 -3 -2 2 -1 -1 -2 -2 -2 2 -2 0 0 0 -5 -2 -2 -1 -1 0 1 -2
3 -2 -1 -3 -0 2 -2 1 -0 -2 -0 0 -1 -0 -1 1 2 -3 -1 -1 -2 -1 -4 -3 -1 0 1 1 -0 3 4 -4 -3 -1 -2 3 -1 1 -1 0 -1 -9 12 3 -5 -5 -3 -1 0 1 -2 -2 1 2
1 -1 -2 -2 2 -0 1 -0 1 1 0 -0 -1 1 1 2 -2 -2 -3 -3 1 -2 -2 -1 -2 0 0 1 0 -1 -4 -3 -2 -2 -3 -2 -2 -1 2 3 0 -3 -5 -3 -2 2 1 -1 -1 -1 -1 -3 0 2
-5 2 -2 -3 1 1 -0 0 0 -1 -2 -1 2 0 -1 -2 -1 1 1 -1 -1 -3 -2 -1 -2 -1 -2 -1 -2 -2 -1 -2 -3 -3 0 0 3 10 11 1 3 3 -7 -3 1 -2 -1 2 3 1 1 -1 -4 2
0 -2 4 1 1 1 -2 -2 -2 -2 -0 -0 0 -1 -2 4 -2 -0 -1 -1 -1 -1 -0 1 1 -3 -1 -3 -3 -3 -2 -2 -2 -2 -1 -3 -4 -4 -2 -8 -4 -1 -1 -1 1 3 3 4 2 2 1 0 -1 -1
-3 -1 2 1 1 -2 -4 2 2 -1 -4 4 4 -1 -3 0 -3 -0 1 -1 -2 -1 2 0 1 -3 -1 -1 -0 -1 -1 -1 -1 1 1 -2 -3 -4 -4 -2 0 -0 -1 0 -1 -2 1 1 -1 0 1 1 2 -0
2 2 3 1 -1 1 3 -3 0 -1 -1 -4 3 -1 -2 5 -3 -6 -0 -1 -1 -1 -0 -1 -0 -1 -2 -1 -1 -2 -2 1 -1 0 -0 -2 -2 -1 0 -0 -1 -1 -0 2 1 1 1 0 1 -0 1 2 3 7
1 -1 -0 1 1 -2 -1 0 1 0 1 -0 1 -2 -2 -1 -1 4 -5 -2 -2 -2 -1 2 -0 1 -2 -1 -2 -2 -3 -3 -2 -1 -2 -1 -2 -2 -2 -2 -1 1 -0 -0 1 1 1 1 1 2 1 2 3 3
1 -2 -1 -0 1 1 0 0 1 1 0 0 1 -2 -1 0 -1 5 -3 -0 -1 -2 -1 -2 0 -1 -1 -2 -1 -0 -2 -2 -2 -1 -1 -0 1 -0 -0 -0 -0 -1 -1 0 1 1 1 1 2 2 2 2 2 2
Height
1345 1353 1360 1367 1368 1379 1387 1391 1395 1400 1406 1404 1406 1414 1418 1422 1428 1432 1435 1438 1440 1443 1447 1449 1448 1449 1448 1449 1451 1456 1462 1459 1459 1461 1458 1450 1443 1434 1437 1435 1431 1434 1434 1433 1432 1436 1433 1427 1425 1432 1431 1425 1424 1416
1354 1360 1366 1369 1374 1381 1390 1396 1402 1406 1407 1406 1412 1417 1421 1424 1429 1433 1436 1439 1442 1446 1448 1450 1451 1451 1451 1453 1453 1458 1457 1456 1457 1456 1451 1450 1447 1444 1439 1438 1431 1433 1433 1436 1437 1430 1428 1427 1431 1432 1428 1425 1418 1413
1359 1363 1368 1372 1379 1385 1393 1400 1405 1410 1413 1415 1415 1420 1426 1429 1432 1436 1438 1441 1444 1446 1448 1449 1450 1451 1450 1451 1454 1456 1455 1456 1456 1456 1455 1452 1449 1444 1440 1434 1433 1430 1430 1428 1429 1424 1423 1424 1424 1425 1425 1420 1414 1408
1361 1369 1376 1378 1380 1393 1398 1404 1410 1416 1417 1419 1423 1425 1428 1432 1435 1438 1442 1442 1446 1447 1447 1448 1449 1451 1451 1452 1453 1454 1457 1457 1457 1456 1454 1453 1449 1445 1440 1436 1432 1430 1429 1427 1425 1425 1425 1423 1425 1424 1419 1415 1410 1406
1371 1376 1380 1382 1386 1395 1403 1412 1413 1417 1421 1424 1427 1430 1432 1434 1437 1442 1443 1444 1446 1451 1447 1446 1450 1447 1449 1452 1453 1453 1456 1457 1455 1453 1453 1451 1447 1444 1436 1433 1427 1423 1423 1424 1421 1424 1425 1421 1421 1419 1416 1411 1407 1403
1373 1378 1383 1387 1394 1400 1408 1415 1417 1423 1427 1430 1430 1434 1438 1436 1439 1446 1446 1448 1448 1450 1451 1443 1449 1447 1448 1452 1452 1451 1453 1455 1454 1452 1450 1446 1445 1446 1438 1425 1419 1419 1420 1420 1419 1418 1418 1417 1416 1413 1411 1408 1405 1401
1379 1384 1389 1393 1400 1409 1413 1418 1425 1428 1431 1433 1434 1439 1439 1439 1443 1445 1446 1450 1447 1449 1453 1448 1442 1447 1449 1450 1449 1450 1451 1451 1451 1451 1449 1446 1442 1444 1435 1425 1419 1417 1416 1418 1418 1417 1414 1412 1411 1411 1408 1405 1403 1399
1386 1391 1396 1402 1408 1413 1419 1424 1429 1433 1435 1437 1439 1441 1441 1443 1446 1449 1447 1448 1448 1451 1451 1448 1443 1445 1448 1446 1447 1447 1450 1451 1450 1448 1443 1439 1437 1436 1426 1415 1414 1415 1417 1418 1416 1414 1410 1411 1410 1408 1406 1403 1401 1398
1398 1402 1406 1411 1416 1421 1427 1430 1433 1437 1438 1441 1444 1446 1448 1448 1449 1449 1448 1447 1448 1453 1450 1448 1442 1442 1447 1446 1447 1447 1447 1444 1441 1440 1436 1435 1426 1422 1413 1412 1413 1414 1416 1415 1414 1412 1411 1411 1409 1407 1405 1402 1400 1396
1409 1412 1417 1421 1425 1429 1433 1436 1439 1441 1443 1446 1448 1450 1449 1450 1450 1450 1450 1450 1450 1451 1451 1447 1445 1445 1448 1445 1443 1444 1441 1436 1427 1425 1426 1424 1413 1410 1409 1410 1411 1413 1414 1414 1413 1412 1411 1410 1408 1406 1404 1401 1398 1395
1418 1421 1425 1428 1432 1435 1438 1440 1443 1446 1448 1449 1450 1450 1451 1450 1451 1450 1450 1449 1449 1448 1447 1444 1444 1445 1445 1443 1439 1439 1434 1429 1423 1418 1418 1408 1399 1406 1409 1411 1412 1413 1413 1413 1412 1412 1411 1409 1407 1405 1402 1399 1397 1394
1425 1428 1432 1434 1437 1441 1443 1445 1446 1447 1448 1448 1449 1449 1450 1451 1451 1451 1445 1446 1443 1436 1440 1440 1442 1443 1443 1443 1441 1436 1431 1426 1418 1419 1416 1401 1399 1404 1409 1411 1413 1413 1413 1412 1412 1411 1409 1408 1406 1404 1401 1398 1396 1393
1433 1436 1438 1441 1442 1444 1445 1446 1447 1448 1448 1449 1450 1450 1450 1451 1449 1447 1444 1437 1438 1439 1441 1442 1443 1442 1441 1442 1438 1432 1427 1419 1413 1412 1399 1397 1403 1408 1410 1412 1412 1412 1412 1412 1410 1409 1408 1406 1404 1402 1400 1398 1393 1390
1438 1440 1442 1444 1445 1446 1447 1447 1448 1448 1448 1449 1449 1448 1447 1445 1442 1436 1434 1435 1439 1440 1441 1441 1441 1439 1436 1435 1432 1427 1415 1411 1408 1398 1392 1402 1407 1410 1411 1411 1412 1411 1410 1409 1408 1407 1405 1403 1401 1399 1397 1394 1391 1388
1441 1443 1444 1445 1446 1447 1447 1447 1447 1448 1448 1448 1448 1443 1441 1439 1439 1440 1440 1440 1440 1439 1439 1438 1437 1437 1434 1431 1424 1417 1412 1405 1394 1394 1406 1410 1409 1410 1411 1411 1410 1409 1407 1406 1405 1404 1401 1399 1397 1395 1393 1391 1389 1386
1442 1443 1443 1444 1445 1446 1446 1446 1446 1447 1446 1446 1445 1442 1439 1440 1439 1439 1439 1438 1437 1437 1437 1437 1435 1432 1426 1420 1414 1409 1400 1394 1402 1407 1409 1409 1408 1409 1409 1409 1408 1407 1405 1404 1403 1401 1399 1396 1394 1391 1389 1388 1386 1384
1442 1444 1443 1443 1444 1445 1446 1447 1446 1445 1445 1442 1439 1439 1439 1438 1437 1437 1437 1435 1435 1435 1434 1431 1430 1424 1418 1413 1406 1400 1404 1412 1413 1412 1410 1409 1407 1407 1407 1406 1404 1404 1404 1402 1400 1397 1395 1393 1391 1390 1387 1385 1382 1381
1443 1442 1442 1443 1444 1445 1445 1445 1445 1443 1440 1437 1435 1435 1435 1436 1435 1434 1433 1433 1433 1432 1429 1426 1423 1417 1415 1408 1403 1406 1411 1413 1413 1411 1411 1410 1408 1407 1406 1405 1403 1402 1401 1399 1396 1394 1392 1390 1388 1386 1384 1381 1379 1377
1441 1442 1441 1442 1444 1445 1445 1444 1443 1439 1435 1434 1432 1432 1431 1431 1430 1430 1429 1429 1429 1429 1428 1423 1417 1408 1405 1404 1405 1408 1410 1411 1411 1410 1409 1407 1407 1406 1404 1401 1400 1399 1397 1395 1393 1391 1389 1387 1385 1383 1380 1378 1376 1374
1438 1439 1439 1441 1443 1444 1443 1442 1441 1439 1433 1430 1429 1428 1428 1427 1425 1424 1424 1424 1425 1425 1423 1416 1410 1406 1407 1408 1409 1410 1410 1410 1410 1408 1406 1404 1404 1404 1402 1400 1399 1397 1395 1393 1391 1388 1386 1384 1382 1380 1378 1375 1373 1370
1437 1436 1437 1439 1442 1443 1442 1438 1436 1435 1430 1428 1425 1424 1422 1420 1420 1419 1419 1418 1419 1417 1411 1408 1407 1406 1406 1407 1408 1408 1409 1409 1408 1407 1405 1404 1402 1401 1399 1398 1396 1394 1392 1390 1388 1385 1384 1381 1379 1377 1374 1372 1369 1366
1436 1435 1436 1439 1441 1440 1438 1435 1434 1432 1430 1425 1422 1420 1418 1416 1415 1414 1413 1414 1411 1407 1408 1407 1406 1406 1406 1406 1406 1407 1406 1405 1405 1404 1402 1401 1399 1398 1396 1394 1393 1391 1389 1387 1384 1382 1379 1378 1375 1372 1370 1367 1363 1360
1433 1435 1437 1438 1439 1437 1435 1433 1432 1427 1425 1421 1419 1416 1413 1412 1411 1413 1410 1406 1406 1406 1406 1406 1405 1405 1406 1404 1405 1405 1404 1404 1403 1401 1400 1399 1397 1396 1393 1391 1390 1388 1385 1383 1381 1378 1375 1373 1370 1367 1364 1360 1357 1353
1431 1434 1434 1433 1433 1430 1431 1429 1427 1425 1421 1419 1416 1414 1409 1410 1411 1408 1402 1398 1402 1404 1404 1404 1405 1405 1405 1404 1403 1402 1402 1401 1400 1399 1398 1396 1394 1392 1390 1388 1387 1385 1382 1379 1376 1373 1371 1368 1365 1362 1358 1354 1350 1347
1434 1431 1431 1427 1427 1427 1426 1423 1422 1420 1419 1418 1416 1413 1409 1411 1408 1401 1394 1396 1400 1401 1403 1403 1404 1404 1403 1402 1401 1400 1400 1399 1398 1396 1395 1393 1391 1389 1387 1385 1382 1380 1377 1374 1371 1368 1365 1362 1359 1355 1351 1348 1344 1340
1427 1422 1422 1418 1419 1420 1417 1417 1417 1417 1415 1415 1412 1410 1411 1409 1405 1398 1392 1395 1398 1400 1401 1401 1401 1401 1400 1399 1399 1398 1398 1396 1395 1393 1392 1390 1387 1385 1382 1380 1377 1374 1373 1369 1366 1362 1358 1355 1351 1348 1344 1340 1337 1333
1419 1413 1413 1413 1413 1414 1414 1413 1413 1413 1412 1410 1408 1409 1408 1406 1397 1392 1395 1395 1397 1398 1398 1397 1397 1397 1397 1397 1396 1396 1394 1392 1391 1390 1386 1384 1383 1381 1379 1376 1372 1370 1367 1364 1360 1356 1352 1348 1344 1340 1336 1333 1329 1326
1410 1407 1408 1408 1409 1410 1411 1410 1410 1408 1405 1404 1405 1404 1402 1397 1391 1394 1394 1394 1394 1393 1393 1392 1392 1392 1393 1393 1392 1391 1390 1389 1387 1385 1384 1382 1380 1377 1373 1370 1368 1364 1360 1357 1353 1350 1346 1342 1338 1334 1330 1325 1319 1316
1402 1402 1404 1405 1406 1406 1405 1404 1401 1399 1399 1400 1400 1396 1394 1392 1391 1391 1391 1391 1390 1390 1390 1390 1389 1389 1389 1389 1388 1388 1387 1386 1385 1382 1380 1377 1374 1372 1369 1365 1361 1358 1355 1350 1347 1343 1340 1336 1332 1327 1322 1317 1312 1308
1396 1398 1399 1401 1401 1397 1395 1396 1395 1395 1396 1396 1395 1394 1392 1390 1388 1387 1387 1386 1387 1387 1387 1387 1387 1386 1387 1387 1387 1386 1385 1383 1381 1380 1376 1373 1370 1367 1363 1360 1357 1353 1349 1345 1341 1337 1333 1330 1325 1321 1317 1313 1308 1303
1392 1394 1395 1394 1393 1391 1391 1391 1391 1391 1391 1391 1391 1391 1389 1387 1384 1382 1381 1381 1382 1382 1383 1384 1384 1384 1384 1384 1384 1383 1382 1381 1377 1373 1371 1368 1365 1362 1359 1356 1352 1348 1345 1341 1337 1333 1330 1326 1322 1318 1314 1309 1305 1301
1390 1390 1390 1390 1389 1389 1389 1389 1389 1388 1387 1387 1386 1386 1386 1385 1383 1380 1376 1376 1377 1379 1380 1381 1382 1382 1381 1381 1381 1379 1376 1374 1372 1370 1366 1363 1360 1357 1354 1350 1348 1345 1341 1337 1334 1331 1327 1324 1320 1317 1313 1309 1305 1301
1387 1388 1389 1389 1387 1387 1388 1388 1386 1385 1385 1383 1383 1384 1384 1384 1380 1378 1374 1374 1375 1376 1378 1378 1379 1379 1379 1379 1378 1376 1373 1371 1368 1365 1362 1359 1356 1353 1350 1347 1344 1341 1338 1335 1332 1329 1326 1323 1320 1316 1313 1309 1306 1302